ENST Weather Reports


Display with metric or nautical units.
time (UTC)temp
F
wind
direction
speed
MPH
gust
MPH
rain 1hr
in
rain 24hr
in
rain mn
in
humidity
%
barometer
mb
20260504100307 39 280 7.0 0.0 0.00 0.00 0.00 80 998.0
20260504080307 32 0 0.0 0.0 0.00 0.00 0.00 10 996.0
20260504070308 33 30 6.0 0.0 0.00 0.00 0.00 93 995.0
20260504050307 35 190 12.0 0.0 0.00 0.00 0.00 86 996.0
20260504043309 37 190 13.0 0.0 0.00 0.00 0.00 86 996.0
20260504040307 35 180 10.0 0.0 0.00 0.00 0.00 93 997.0
20260504033306 35 0 5.0 0.0 0.00 0.00 0.00 93 997.0
20260504030307 35 180 10.0 0.0 0.00 0.00 0.00 93 998.0
20260504023308 35 200 15.0 0.0 0.00 0.00 0.00 93 998.0
20260504020307 35 210 7.0 0.0 0.00 0.00 0.00 93 999.0
20260504013308 35 230 10.0 0.0 0.00 0.00 0.00 93 999.0
20260504010308 35 220 10.0 0.0 0.00 0.00 0.00 93 999.0
20260504003307 35 230 14.0 0.0 0.00 0.00 0.00 93 1000.0
20260504000308 35 230 20.0 0.0 0.00 0.00 0.00 93 1000.0
20260503233306 37 220 20.0 0.0 0.00 0.00 0.00 93 1000.0
20260503230308 37 200 20.0 0.0 0.00 0.00 0.00 93 1001.0
20260503223308 39 190 28.0 0.0 0.00 0.00 0.00 80 1001.0
20260503220308 39 200 23.0 36.0 0.00 0.00 0.00 80 1001.0
20260503213306 39 200 25.0 0.0 0.00 0.00 0.00 75 1001.0
20260503210306 41 200 24.0 0.0 0.00 0.00 0.00 70 1002.0
20260503203306 41 200 24.0 0.0 0.00 0.00 0.00 65 1002.0
20260503200309 41 200 23.0 0.0 0.00 0.00 0.00 60 1002.0
20260503193308 41 190 22.0 0.0 0.00 0.00 0.00 60 1003.0
20260503190310 41 200 24.0 40.0 0.00 0.00 0.00 65 1003.0
20260503183309 41 200 24.0 40.0 0.00 0.00 0.00 65 1003.0
20260503180309 41 210 24.0 0.0 0.00 0.00 0.00 65 1003.0
20260503173308 42 210 24.0 0.0 0.00 0.00 0.00 56 1003.0
20260503170307 41 200 24.0 0.0 0.00 0.00 0.00 65 1004.0
20260503150307 41 200 22.0 33.0 0.00 0.00 0.00 65 1006.0
20260503140308 42 200 20.0 0.0 0.00 0.00 0.00 56 1006.0
20260503130307 41 200 18.0 0.0 0.00 0.00 0.00 60 1007.0
20260503110307 42 200 15.0 0.0 0.00 0.00 0.00 65 1008.0